Year,Month,Day,Hour,Minute,Value (Times are PST for temperature in C)
2018,08,09,00,00,21.10
2018,08,09,00,01,21.10
2018,08,09,00,02,21.00
2018,08,09,00,03,21.00
2018,08,09,00,04,21.00
2018,08,09,00,05,21.00
2018,08,09,00,06,20.90
2018,08,09,00,07,20.90
2018,08,09,00,08,20.90
2018,08,09,00,09,20.90
2018,08,09,00,10,20.90
2018,08,09,00,11,20.80
2018,08,09,00,12,20.80
2018,08,09,00,13,20.80
2018,08,09,00,14,20.80
2018,08,09,00,15,20.80
2018,08,09,00,16,20.80
2018,08,09,00,17,20.70
2018,08,09,00,18,20.70
2018,08,09,00,19,20.70
2018,08,09,00,20,20.70
2018,08,09,00,21,20.60
2018,08,09,00,22,20.60
2018,08,09,00,23,20.60
2018,08,09,00,24,20.60
2018,08,09,00,25,20.60
2018,08,09,00,26,20.60
2018,08,09,00,27,20.50
2018,08,09,00,28,20.50
2018,08,09,00,29,20.50
2018,08,09,00,30,20.40
2018,08,09,00,31,20.40
2018,08,09,00,32,20.40
2018,08,09,00,33,20.40
2018,08,09,00,34,20.40
2018,08,09,00,35,20.30
2018,08,09,00,36,20.30
2018,08,09,00,37,20.30
2018,08,09,00,38,20.20
2018,08,09,00,39,20.20
2018,08,09,00,40,20.20
2018,08,09,00,41,20.20
2018,08,09,00,42,20.20
2018,08,09,00,43,20.20
2018,08,09,00,44,20.20
2018,08,09,00,45,20.10
2018,08,09,00,46,20.10
2018,08,09,00,47,20.10
2018,08,09,00,48,20.10
2018,08,09,00,49,20.10
2018,08,09,00,50,20.10
2018,08,09,00,51,20.00
2018,08,09,00,52,20.00
2018,08,09,00,53,19.90
2018,08,09,00,54,19.90
2018,08,09,00,55,19.90
2018,08,09,00,56,19.90
2018,08,09,00,57,19.80
2018,08,09,00,58,19.80
2018,08,09,00,59,19.80
2018,08,09,01,00,19.80
2018,08,09,01,01,19.80
2018,08,09,01,02,19.80
2018,08,09,01,03,19.70
2018,08,09,01,04,19.70
2018,08,09,01,05,19.70
2018,08,09,01,06,19.70
2018,08,09,01,07,19.70
2018,08,09,01,08,19.60
2018,08,09,01,09,19.60
2018,08,09,01,10,19.60
2018,08,09,01,11,19.60
2018,08,09,01,12,19.50
2018,08,09,01,13,19.50
2018,08,09,01,14,19.50
2018,08,09,01,15,19.40
2018,08,09,01,16,19.40
2018,08,09,01,17,19.40
2018,08,09,01,18,19.30
2018,08,09,01,19,19.30
2018,08,09,01,20,19.30
2018,08,09,01,21,19.20
2018,08,09,01,22,19.20
2018,08,09,01,23,19.10
2018,08,09,01,24,19.10
2018,08,09,01,25,19.00
2018,08,09,01,26,18.90
2018,08,09,01,27,18.90
2018,08,09,01,28,18.80
2018,08,09,01,29,18.80
2018,08,09,01,30,18.70
2018,08,09,01,31,18.70
2018,08,09,01,32,18.60
2018,08,09,01,33,18.60
2018,08,09,01,34,18.60
2018,08,09,01,35,18.50
2018,08,09,01,36,18.50
2018,08,09,01,37,18.40
2018,08,09,01,38,18.40
2018,08,09,01,39,18.40
2018,08,09,01,40,18.40
2018,08,09,01,41,18.30
2018,08,09,01,42,18.30
2018,08,09,01,43,18.30
2018,08,09,01,44,18.30
2018,08,09,01,45,18.30
2018,08,09,01,46,18.20
2018,08,09,01,47,18.20
2018,08,09,01,48,18.20
2018,08,09,01,49,18.20
2018,08,09,01,50,18.10
2018,08,09,01,51,18.10
2018,08,09,01,52,18.00
2018,08,09,01,53,17.90
2018,08,09,01,54,17.90
2018,08,09,01,55,17.80
2018,08,09,01,56,17.80
2018,08,09,01,57,17.70
2018,08,09,01,58,17.60
2018,08,09,01,59,17.60
2018,08,09,02,00,17.50
2018,08,09,02,01,17.50
2018,08,09,02,02,17.40
2018,08,09,02,03,17.40
2018,08,09,02,04,17.30
2018,08,09,02,05,17.30
2018,08,09,02,06,17.20
2018,08,09,02,07,17.20
2018,08,09,02,08,17.20
2018,08,09,02,09,17.10
2018,08,09,02,10,17.10
2018,08,09,02,11,17.10
2018,08,09,02,12,17.00
2018,08,09,02,13,17.00
2018,08,09,02,14,16.90
2018,08,09,02,15,16.90
2018,08,09,02,16,16.90
2018,08,09,02,17,16.90
2018,08,09,02,18,16.90
2018,08,09,02,19,16.90
2018,08,09,02,20,16.80
2018,08,09,02,21,16.80
2018,08,09,02,22,16.80
2018,08,09,02,23,16.80
2018,08,09,02,24,16.80
2018,08,09,02,25,16.80
2018,08,09,02,26,16.80
2018,08,09,02,27,16.80
2018,08,09,02,28,16.70
2018,08,09,02,29,16.70
2018,08,09,02,30,16.70
2018,08,09,02,31,16.70
2018,08,09,02,32,16.70
2018,08,09,02,33,16.70
2018,08,09,02,34,16.70
2018,08,09,02,35,16.70
2018,08,09,02,36,16.70
2018,08,09,02,37,16.60
2018,08,09,02,38,16.60
2018,08,09,02,39,16.60
2018,08,09,02,40,16.60
2018,08,09,02,41,16.60
2018,08,09,02,42,16.60
2018,08,09,02,43,16.60
2018,08,09,02,44,16.50
2018,08,09,02,45,16.50
2018,08,09,02,46,16.50
2018,08,09,02,47,16.50
2018,08,09,02,48,16.40
2018,08,09,02,49,16.40
2018,08,09,02,50,16.40
2018,08,09,02,51,16.40
2018,08,09,02,52,16.40
2018,08,09,02,53,16.40
2018,08,09,02,54,16.40
2018,08,09,02,55,16.40
2018,08,09,02,56,16.30
2018,08,09,02,57,16.30
2018,08,09,02,58,16.30
2018,08,09,02,59,16.30
2018,08,09,03,00,16.30
2018,08,09,03,01,16.30
2018,08,09,03,02,16.30
2018,08,09,03,03,16.30
2018,08,09,03,04,16.30
2018,08,09,03,05,16.30
2018,08,09,03,06,16.30
2018,08,09,03,07,16.30
2018,08,09,03,08,16.30
2018,08,09,03,09,16.30
2018,08,09,03,10,16.30
2018,08,09,03,11,16.20
2018,08,09,03,12,16.20
2018,08,09,03,13,16.20
2018,08,09,03,14,16.20
2018,08,09,03,15,16.10
2018,08,09,03,16,16.10
2018,08,09,03,17,16.10
2018,08,09,03,18,16.10
2018,08,09,03,19,16.00
2018,08,09,03,20,16.00
2018,08,09,03,21,16.00
2018,08,09,03,22,16.00
2018,08,09,03,23,15.90
2018,08,09,03,24,15.90
2018,08,09,03,25,15.90
2018,08,09,03,26,15.90
2018,08,09,03,27,15.90
2018,08,09,03,28,15.90
2018,08,09,03,29,15.90
2018,08,09,03,30,15.90
2018,08,09,03,31,15.90
2018,08,09,03,32,15.80
2018,08,09,03,33,15.80
2018,08,09,03,34,15.80
2018,08,09,03,35,15.80
2018,08,09,03,36,15.80
2018,08,09,03,37,15.80
2018,08,09,03,38,15.80
2018,08,09,03,39,15.80
2018,08,09,03,40,15.80
2018,08,09,03,41,15.80
2018,08,09,03,42,15.80
2018,08,09,03,43,15.80
2018,08,09,03,44,15.70
2018,08,09,03,45,15.70
2018,08,09,03,46,15.70
2018,08,09,03,47,15.70
2018,08,09,03,48,15.70
2018,08,09,03,49,15.70
2018,08,09,03,50,15.70
2018,08,09,03,51,15.60
2018,08,09,03,52,15.60
2018,08,09,03,53,15.60
2018,08,09,03,54,15.60
2018,08,09,03,55,15.60
2018,08,09,03,56,15.60
2018,08,09,03,57,15.60
2018,08,09,03,58,15.50
2018,08,09,03,59,15.50
2018,08,09,04,00,15.50
2018,08,09,04,01,15.50
2018,08,09,04,02,15.50
2018,08,09,04,03,15.40
2018,08,09,04,04,15.40
2018,08,09,04,05,15.40
2018,08,09,04,06,15.40
2018,08,09,04,07,15.40
2018,08,09,04,08,15.40
2018,08,09,04,09,15.40
2018,08,09,04,10,15.40
2018,08,09,04,11,15.40
2018,08,09,04,12,15.40
2018,08,09,04,13,15.40
2018,08,09,04,14,15.40
2018,08,09,04,15,15.30
2018,08,09,04,16,15.30
2018,08,09,04,17,15.30
2018,08,09,04,18,15.30
2018,08,09,04,19,15.30
2018,08,09,04,20,15.30
2018,08,09,04,21,15.30
2018,08,09,04,22,15.30
2018,08,09,04,23,15.30
2018,08,09,04,24,15.30
2018,08,09,04,25,15.30
2018,08,09,04,26,15.30
2018,08,09,04,27,15.30
2018,08,09,04,28,15.20
2018,08,09,04,29,15.20
2018,08,09,04,30,15.20
2018,08,09,04,31,15.20
2018,08,09,04,32,15.20
2018,08,09,04,33,15.20
2018,08,09,04,34,15.20
2018,08,09,04,35,15.20
2018,08,09,04,36,15.20
2018,08,09,04,37,15.20
2018,08,09,04,38,15.20
2018,08,09,04,39,15.20
2018,08,09,04,40,15.20
2018,08,09,04,41,15.30
2018,08,09,04,42,15.30
2018,08,09,04,43,15.20
2018,08,09,04,44,15.20
2018,08,09,04,45,15.20
2018,08,09,04,46,15.20
2018,08,09,04,47,15.20
2018,08,09,04,48,15.20
2018,08,09,04,49,15.20
2018,08,09,04,50,15.20
2018,08,09,04,51,15.20
2018,08,09,04,52,15.10
2018,08,09,04,53,15.10
2018,08,09,04,54,15.10
2018,08,09,04,55,15.10
2018,08,09,04,56,15.10
2018,08,09,04,57,15.10
2018,08,09,04,58,15.00
2018,08,09,04,59,15.00
2018,08,09,05,00,15.00
2018,08,09,05,01,15.00
2018,08,09,05,02,14.90
2018,08,09,05,03,14.90
2018,08,09,05,04,14.90
2018,08,09,05,05,14.90
2018,08,09,05,06,14.90
2018,08,09,05,07,14.90
2018,08,09,05,08,14.90
2018,08,09,05,09,14.80
2018,08,09,05,10,14.80
2018,08,09,05,11,14.80
2018,08,09,05,12,14.80
2018,08,09,05,13,14.80
2018,08,09,05,14,14.80
2018,08,09,05,15,14.80
2018,08,09,05,16,14.80
2018,08,09,05,17,14.70
2018,08,09,05,18,14.70
2018,08,09,05,19,14.70
2018,08,09,05,20,14.70
2018,08,09,05,21,14.70
2018,08,09,05,22,14.70
2018,08,09,05,23,14.70
2018,08,09,05,24,14.70
2018,08,09,05,25,14.70
2018,08,09,05,26,14.70
2018,08,09,05,27,14.70
2018,08,09,05,28,14.70
2018,08,09,05,29,14.70
2018,08,09,05,30,14.70
2018,08,09,05,31,14.70
2018,08,09,05,32,14.70
2018,08,09,05,33,14.70
2018,08,09,05,34,14.70
2018,08,09,05,35,14.70
2018,08,09,05,36,14.70
2018,08,09,05,37,14.60
2018,08,09,05,38,14.60
2018,08,09,05,39,14.60
2018,08,09,05,40,14.60
2018,08,09,05,41,14.60
2018,08,09,05,42,14.60
2018,08,09,05,43,14.60
2018,08,09,05,44,14.60
2018,08,09,05,45,14.60
2018,08,09,05,46,14.60
2018,08,09,05,47,14.60
2018,08,09,05,48,14.60
2018,08,09,05,49,14.60
2018,08,09,05,50,14.60
2018,08,09,05,51,14.60
2018,08,09,05,52,14.60
2018,08,09,05,53,14.60
2018,08,09,05,54,14.60
2018,08,09,05,55,14.60
2018,08,09,05,56,14.60
2018,08,09,05,57,14.60
2018,08,09,05,58,14.60
2018,08,09,05,59,14.60
2018,08,09,06,00,14.60
2018,08,09,06,01,14.60
2018,08,09,06,02,14.60
2018,08,09,06,03,14.60
2018,08,09,06,04,14.60
2018,08,09,06,05,14.60
2018,08,09,06,06,14.60
2018,08,09,06,07,14.60
2018,08,09,06,08,14.60
2018,08,09,06,09,14.60
2018,08,09,06,10,14.60
2018,08,09,06,11,14.60
2018,08,09,06,12,14.60
2018,08,09,06,13,14.60
2018,08,09,06,14,14.60
2018,08,09,06,15,14.60
2018,08,09,06,16,14.60
2018,08,09,06,17,14.60
2018,08,09,06,18,14.60
2018,08,09,06,19,14.50
2018,08,09,06,20,14.50
2018,08,09,06,21,14.50
2018,08,09,06,22,14.50
2018,08,09,06,23,14.50
2018,08,09,06,24,14.50
2018,08,09,06,25,14.40
2018,08,09,06,26,14.40
2018,08,09,06,27,14.40
2018,08,09,06,28,14.40
2018,08,09,06,29,14.40
2018,08,09,06,30,14.40
2018,08,09,06,31,14.40
2018,08,09,06,32,14.40
2018,08,09,06,33,14.40
2018,08,09,06,34,14.40
2018,08,09,06,35,14.40
2018,08,09,06,36,14.40
2018,08,09,06,37,14.50
2018,08,09,06,38,14.50
2018,08,09,06,39,14.50
2018,08,09,06,40,14.50
2018,08,09,06,41,14.50
2018,08,09,06,42,14.40
2018,08,09,06,43,14.50
2018,08,09,06,44,14.50
2018,08,09,06,45,14.50
2018,08,09,06,46,14.50
2018,08,09,06,47,14.50
2018,08,09,06,48,14.50
2018,08,09,06,49,14.50
2018,08,09,06,50,14.50
2018,08,09,06,51,14.50
2018,08,09,06,52,14.50
2018,08,09,06,53,14.50
2018,08,09,06,54,14.60
2018,08,09,06,55,14.60
2018,08,09,06,56,14.60
2018,08,09,06,57,14.60
2018,08,09,06,58,14.60
2018,08,09,06,59,14.60
2018,08,09,07,00,14.60
2018,08,09,07,01,14.60
2018,08,09,07,02,14.60
2018,08,09,07,03,14.60
2018,08,09,07,04,14.60
2018,08,09,07,05,14.60
2018,08,09,07,06,14.70
2018,08,09,07,07,14.70
2018,08,09,07,08,14.70
2018,08,09,07,09,14.70
2018,08,09,07,10,14.70
2018,08,09,07,11,14.70
2018,08,09,07,12,14.70
2018,08,09,07,13,14.70
2018,08,09,07,14,14.70
2018,08,09,07,15,14.70
2018,08,09,07,16,14.70
2018,08,09,07,17,14.70
2018,08,09,07,18,14.70
2018,08,09,07,19,14.70
2018,08,09,07,20,14.70
2018,08,09,07,21,14.70
2018,08,09,07,22,14.70
2018,08,09,07,23,14.70
2018,08,09,07,24,14.70
2018,08,09,07,25,14.80
2018,08,09,07,26,14.80
2018,08,09,07,27,14.80
2018,08,09,07,28,14.80
2018,08,09,07,29,14.90
2018,08,09,07,30,14.90
2018,08,09,07,31,14.90
2018,08,09,07,32,15.00
2018,08,09,07,33,15.00
2018,08,09,07,34,15.00
2018,08,09,07,35,15.10
2018,08,09,07,36,15.10
2018,08,09,07,37,15.10
2018,08,09,07,38,15.20
2018,08,09,07,39,15.20
2018,08,09,07,40,15.20
2018,08,09,07,41,15.30
2018,08,09,07,42,15.30
2018,08,09,07,43,15.40
2018,08,09,07,44,15.40
2018,08,09,07,45,15.40
2018,08,09,07,46,15.50
2018,08,09,07,47,15.60
2018,08,09,07,48,15.60
2018,08,09,07,49,15.70
2018,08,09,07,50,15.80
2018,08,09,07,51,15.80
2018,08,09,07,52,15.90
2018,08,09,07,53,15.90
2018,08,09,07,54,16.00
2018,08,09,07,55,16.00
2018,08,09,07,56,16.10
2018,08,09,07,57,16.10
2018,08,09,07,58,16.20
2018,08,09,07,59,16.20
2018,08,09,08,00,16.20
2018,08,09,08,01,16.20
2018,08,09,08,02,16.30
2018,08,09,08,03,16.30
2018,08,09,08,04,16.30
2018,08,09,08,05,16.30
2018,08,09,08,06,16.30
2018,08,09,08,07,16.30
2018,08,09,08,08,16.30
2018,08,09,08,09,16.30
2018,08,09,08,10,16.40
2018,08,09,08,11,16.40
2018,08,09,08,12,16.50
2018,08,09,08,13,16.50
2018,08,09,08,14,16.60
2018,08,09,08,15,16.60
2018,08,09,08,16,16.60
2018,08,09,08,17,16.70
2018,08,09,08,18,16.70
2018,08,09,08,19,16.80
2018,08,09,08,20,16.80
2018,08,09,08,21,16.90
2018,08,09,08,22,16.90
2018,08,09,08,23,17.00
2018,08,09,08,24,17.10
2018,08,09,08,25,17.20
2018,08,09,08,26,17.30
2018,08,09,08,27,17.30
2018,08,09,08,28,17.40
2018,08,09,08,29,17.50
2018,08,09,08,30,17.50
2018,08,09,08,31,17.60
2018,08,09,08,32,17.60
2018,08,09,08,33,17.60
2018,08,09,08,34,17.70
2018,08,09,08,35,17.70
2018,08,09,08,36,17.80
2018,08,09,08,37,17.90
2018,08,09,08,38,18.00
2018,08,09,08,39,18.00
2018,08,09,08,40,18.10
2018,08,09,08,41,18.20
2018,08,09,08,42,18.30
2018,08,09,08,43,18.40
2018,08,09,08,44,18.40
2018,08,09,08,45,18.50
2018,08,09,08,46,18.50
2018,08,09,08,47,18.60
2018,08,09,08,48,18.60
2018,08,09,08,49,18.60
2018,08,09,08,50,18.60
2018,08,09,08,51,18.70
2018,08,09,08,52,18.70
2018,08,09,08,53,18.80
2018,08,09,08,54,18.80
2018,08,09,08,55,18.80
2018,08,09,08,56,18.80
2018,08,09,08,57,18.90
2018,08,09,08,58,18.90
2018,08,09,08,59,18.90
2018,08,09,09,00,18.90
2018,08,09,09,01,18.90
2018,08,09,09,02,18.90
2018,08,09,09,03,19.00
2018,08,09,09,04,19.00
2018,08,09,09,05,19.00
2018,08,09,09,06,19.00
2018,08,09,09,07,19.00
2018,08,09,09,08,19.00
2018,08,09,09,09,19.00
2018,08,09,09,10,19.00
2018,08,09,09,11,19.00
2018,08,09,09,12,19.00
2018,08,09,09,13,19.10
2018,08,09,09,14,19.10
2018,08,09,09,15,19.10
2018,08,09,09,16,19.10
2018,08,09,09,17,19.10
2018,08,09,09,18,19.10
2018,08,09,09,19,19.20
2018,08,09,09,20,19.20
2018,08,09,09,21,19.20
2018,08,09,09,22,19.20
2018,08,09,09,23,19.30
2018,08,09,09,24,19.30
2018,08,09,09,25,19.40
2018,08,09,09,26,19.40
2018,08,09,09,27,19.40
2018,08,09,09,28,19.50
2018,08,09,09,29,19.60
2018,08,09,09,30,19.60
2018,08,09,09,31,19.70
2018,08,09,09,32,19.70
2018,08,09,09,33,19.80
2018,08,09,09,34,19.80
2018,08,09,09,35,19.90
2018,08,09,09,36,20.00
2018,08,09,09,37,20.10
2018,08,09,09,38,20.10
2018,08,09,09,39,20.20
2018,08,09,09,40,20.30
2018,08,09,09,41,20.40
2018,08,09,09,42,20.50
2018,08,09,09,43,20.60
2018,08,09,09,44,20.70
2018,08,09,09,45,20.80
2018,08,09,09,46,20.90
2018,08,09,09,47,21.00
2018,08,09,09,48,21.10
2018,08,09,09,49,21.20
2018,08,09,09,50,21.30
2018,08,09,09,51,21.30
2018,08,09,09,52,21.40
2018,08,09,09,53,21.50
2018,08,09,09,54,21.50
2018,08,09,09,55,21.60
2018,08,09,09,56,21.70
2018,08,09,09,57,21.80
2018,08,09,09,58,21.80
2018,08,09,09,59,21.90
2018,08,09,10,00,22.00
2018,08,09,10,01,22.10
2018,08,09,10,02,22.10
2018,08,09,10,03,22.20
2018,08,09,10,04,22.30
2018,08,09,10,05,22.30
2018,08,09,10,06,22.40
2018,08,09,10,07,22.40
2018,08,09,10,08,22.50
2018,08,09,10,09,22.60
2018,08,09,10,10,22.70
2018,08,09,10,11,22.80
2018,08,09,10,12,22.80
2018,08,09,10,13,22.80
2018,08,09,10,14,22.80
2018,08,09,10,15,22.80
2018,08,09,10,16,22.80
2018,08,09,10,17,22.80
2018,08,09,10,18,22.80
2018,08,09,10,19,22.80
2018,08,09,10,20,22.80
2018,08,09,10,21,22.80
2018,08,09,10,22,22.70
2018,08,09,10,23,22.70
2018,08,09,10,24,22.70
2018,08,09,10,25,22.70
2018,08,09,10,26,22.70
2018,08,09,10,27,22.70
2018,08,09,10,28,22.80
2018,08,09,10,29,22.90
2018,08,09,10,30,22.90
2018,08,09,10,31,23.00
2018,08,09,10,32,23.00
2018,08,09,10,33,23.10
2018,08,09,10,34,23.10
2018,08,09,10,35,23.10
2018,08,09,10,36,23.20
2018,08,09,10,37,23.20
2018,08,09,10,38,23.30
2018,08,09,10,39,23.40
2018,08,09,10,40,23.50
2018,08,09,10,41,23.60
2018,08,09,10,42,23.70
2018,08,09,10,43,23.70
2018,08,09,10,44,23.70
2018,08,09,10,45,23.80
2018,08,09,10,46,23.80
2018,08,09,10,47,23.90
2018,08,09,10,48,23.90
2018,08,09,10,49,24.00
2018,08,09,10,50,24.10
2018,08,09,10,51,24.20
2018,08,09,10,52,24.30
2018,08,09,10,53,24.40
2018,08,09,10,54,24.40
2018,08,09,10,55,24.40
2018,08,09,10,56,24.50
2018,08,09,10,57,24.50
2018,08,09,10,58,24.60
2018,08,09,10,59,24.70
2018,08,09,11,00,24.70
2018,08,09,11,01,24.80
2018,08,09,11,02,24.80
2018,08,09,11,03,24.80
2018,08,09,11,04,24.80
2018,08,09,11,05,24.80
2018,08,09,11,06,24.80
2018,08,09,11,07,24.80
2018,08,09,11,08,24.70
2018,08,09,11,09,24.70
2018,08,09,11,10,24.70
2018,08,09,11,11,24.70
2018,08,09,11,12,24.70
2018,08,09,11,13,24.80
2018,08,09,11,14,24.80
2018,08,09,11,15,24.80
2018,08,09,11,16,24.90
2018,08,09,11,17,24.90
2018,08,09,11,18,24.80
2018,08,09,11,19,24.80
2018,08,09,11,20,24.70
2018,08,09,11,21,24.70
2018,08,09,11,22,24.70
2018,08,09,11,23,24.70
2018,08,09,11,24,24.80
2018,08,09,11,25,24.80
2018,08,09,11,26,24.90
2018,08,09,11,27,25.00
2018,08,09,11,28,25.10
2018,08,09,11,29,25.20
2018,08,09,11,30,25.30
2018,08,09,11,31,25.30
2018,08,09,11,32,25.30
2018,08,09,11,33,25.30
2018,08,09,11,34,25.30
2018,08,09,11,35,25.30
2018,08,09,11,36,25.30
2018,08,09,11,37,25.30
2018,08,09,11,38,25.20
2018,08,09,11,39,25.20
2018,08,09,11,40,25.20
2018,08,09,11,41,25.20
2018,08,09,11,42,25.30
2018,08,09,11,43,25.30
2018,08,09,11,44,25.30
2018,08,09,11,45,25.30
2018,08,09,11,46,25.40
2018,08,09,11,47,25.50
2018,08,09,11,48,25.60
2018,08,09,11,49,25.70
2018,08,09,11,50,25.80
2018,08,09,11,51,25.90
2018,08,09,11,52,26.00
2018,08,09,11,53,26.10
2018,08,09,11,54,26.10
2018,08,09,11,55,26.20
2018,08,09,11,56,26.10
2018,08,09,11,57,26.10
2018,08,09,11,58,26.10
2018,08,09,11,59,26.10
2018,08,09,12,00,26.20
2018,08,09,12,01,26.20
2018,08,09,12,02,26.20
2018,08,09,12,03,26.20
2018,08,09,12,04,26.20
2018,08,09,12,05,26.20
2018,08,09,12,06,26.30
2018,08,09,12,07,26.40
2018,08,09,12,08,26.40
2018,08,09,12,09,26.50
2018,08,09,12,10,26.50
2018,08,09,12,11,26.40
2018,08,09,12,12,26.40
2018,08,09,12,13,26.50
2018,08,09,12,14,26.60
2018,08,09,12,15,26.60
2018,08,09,12,16,26.70
2018,08,09,12,17,26.70
2018,08,09,12,18,26.70
2018,08,09,12,19,26.70
2018,08,09,12,20,26.80
2018,08,09,12,21,26.80
2018,08,09,12,22,26.80
2018,08,09,12,23,26.70
2018,08,09,12,24,26.80
2018,08,09,12,25,26.70
2018,08,09,12,26,26.70
2018,08,09,12,27,26.60
2018,08,09,12,28,26.50
2018,08,09,12,29,26.40
2018,08,09,12,30,26.30
2018,08,09,12,31,26.30
2018,08,09,12,32,26.30
2018,08,09,12,33,26.30
2018,08,09,12,34,26.40
2018,08,09,12,35,26.50
2018,08,09,12,36,26.60
2018,08,09,12,37,26.80
2018,08,09,12,38,27.00
2018,08,09,12,39,27.10
2018,08,09,12,40,27.20
2018,08,09,12,41,27.20
2018,08,09,12,42,27.20
2018,08,09,12,43,27.20
2018,08,09,12,44,27.30
2018,08,09,12,45,27.40
2018,08,09,12,46,27.50
2018,08,09,12,47,27.70
2018,08,09,12,48,27.80
2018,08,09,12,49,27.90
2018,08,09,12,50,28.00
2018,08,09,12,51,28.10
2018,08,09,12,52,28.20
2018,08,09,12,53,28.30
2018,08,09,12,54,28.40
2018,08,09,12,55,28.50
2018,08,09,12,56,28.60
2018,08,09,12,57,28.70
2018,08,09,12,58,28.80
2018,08,09,12,59,28.80
2018,08,09,13,00,28.80
2018,08,09,13,01,28.80
2018,08,09,13,02,28.80
2018,08,09,13,03,28.70
2018,08,09,13,04,28.50
2018,08,09,13,05,28.50
2018,08,09,13,06,28.40
2018,08,09,13,07,28.30
2018,08,09,13,08,28.20
2018,08,09,13,09,28.10
2018,08,09,13,10,28.10
2018,08,09,13,11,28.00
2018,08,09,13,12,28.00
2018,08,09,13,13,27.90
2018,08,09,13,14,27.90
2018,08,09,13,15,27.90
2018,08,09,13,16,27.80
2018,08,09,13,17,27.70
2018,08,09,13,18,27.60
2018,08,09,13,19,27.40
2018,08,09,13,20,27.30
2018,08,09,13,21,27.10
2018,08,09,13,22,26.90
2018,08,09,13,23,26.80
2018,08,09,13,24,26.70
2018,08,09,13,25,26.70
2018,08,09,13,26,26.70
2018,08,09,13,27,26.70
2018,08,09,13,28,26.60
2018,08,09,13,29,26.50
2018,08,09,13,30,26.40
2018,08,09,13,31,26.30
2018,08,09,13,32,26.30
2018,08,09,13,33,26.30
2018,08,09,13,34,26.20
2018,08,09,13,35,26.30
2018,08,09,13,36,26.30
2018,08,09,13,37,26.30
2018,08,09,13,38,26.40
2018,08,09,13,39,26.40
2018,08,09,13,40,26.50
2018,08,09,13,41,26.60
2018,08,09,13,42,26.70
2018,08,09,13,43,26.80
2018,08,09,13,44,26.80
2018,08,09,13,45,26.80
2018,08,09,13,46,26.80
2018,08,09,13,47,26.90
2018,08,09,13,48,27.00
2018,08,09,13,49,27.10
2018,08,09,13,50,27.20
2018,08,09,13,51,27.40
2018,08,09,13,52,27.60
2018,08,09,13,53,27.70
2018,08,09,13,54,27.70
2018,08,09,13,55,27.70
2018,08,09,13,56,27.70
2018,08,09,13,57,27.60
2018,08,09,13,58,27.70
2018,08,09,13,59,27.70
2018,08,09,14,00,27.70
2018,08,09,14,01,27.80
2018,08,09,14,02,27.80
2018,08,09,14,03,28.00
2018,08,09,14,04,28.10
2018,08,09,14,05,28.30
2018,08,09,14,06,28.40
2018,08,09,14,07,28.60
2018,08,09,14,08,28.70
2018,08,09,14,09,28.80
2018,08,09,14,10,28.90
2018,08,09,14,11,29.00
2018,08,09,14,12,29.10
2018,08,09,14,13,29.10
2018,08,09,14,14,29.10
2018,08,09,14,15,29.20
2018,08,09,14,16,29.20
2018,08,09,14,17,29.20
2018,08,09,14,18,29.20
2018,08,09,14,19,29.20
2018,08,09,14,20,29.20
2018,08,09,14,21,29.30
2018,08,09,14,22,29.40
2018,08,09,14,23,29.50
2018,08,09,14,24,29.60
2018,08,09,14,25,29.60
2018,08,09,14,26,29.70
2018,08,09,14,27,29.70
2018,08,09,14,28,29.70
2018,08,09,14,29,29.70
2018,08,09,14,30,29.70
2018,08,09,14,31,29.70
2018,08,09,14,32,29.70
2018,08,09,14,33,29.70
2018,08,09,14,34,29.70
2018,08,09,14,35,29.70
2018,08,09,14,36,29.60
2018,08,09,14,37,29.60
2018,08,09,14,38,29.60
2018,08,09,14,39,29.70
2018,08,09,14,40,29.70
2018,08,09,14,41,29.70
2018,08,09,14,42,29.70
2018,08,09,14,43,29.80
2018,08,09,14,44,29.80
2018,08,09,14,45,29.90
2018,08,09,14,46,30.00
2018,08,09,14,47,30.10
2018,08,09,14,48,30.10
2018,08,09,14,49,30.10
2018,08,09,14,50,29.90
2018,08,09,14,51,29.50
2018,08,09,14,52,29.10
2018,08,09,14,53,28.70
2018,08,09,14,54,28.30
2018,08,09,14,55,28.00
2018,08,09,14,56,27.80
2018,08,09,14,57,27.60
2018,08,09,14,58,27.40
2018,08,09,14,59,27.20
2018,08,09,15,00,27.20
2018,08,09,15,01,27.10
2018,08,09,15,02,27.00
2018,08,09,15,03,27.00
2018,08,09,15,04,27.00
2018,08,09,15,05,27.10
2018,08,09,15,06,27.30
2018,08,09,15,07,27.50
2018,08,09,15,08,27.70
2018,08,09,15,09,27.90
2018,08,09,15,10,28.10
2018,08,09,15,11,28.30
2018,08,09,15,12,28.50
2018,08,09,15,13,28.70
2018,08,09,15,14,28.90
2018,08,09,15,15,29.00
2018,08,09,15,16,29.00
2018,08,09,15,17,29.10
2018,08,09,15,18,29.10
2018,08,09,15,19,29.10
2018,08,09,15,20,29.10
2018,08,09,15,21,29.20
2018,08,09,15,22,29.10
2018,08,09,15,23,29.10
2018,08,09,15,24,29.10
2018,08,09,15,25,29.10
2018,08,09,15,26,29.10
2018,08,09,15,27,29.20
2018,08,09,15,28,29.30
2018,08,09,15,29,29.40
2018,08,09,15,30,29.40
2018,08,09,15,31,29.30
2018,08,09,15,32,29.10
2018,08,09,15,33,29.10
2018,08,09,15,34,29.10
2018,08,09,15,35,29.10
2018,08,09,15,36,29.10
2018,08,09,15,37,29.20
2018,08,09,15,38,29.20
2018,08,09,15,39,29.20
2018,08,09,15,40,29.20
2018,08,09,15,41,29.20
2018,08,09,15,42,29.20
2018,08,09,15,43,29.20
2018,08,09,15,44,29.10
2018,08,09,15,45,29.10
2018,08,09,15,46,29.10
2018,08,09,15,47,29.10
2018,08,09,15,48,29.00
2018,08,09,15,49,28.90
2018,08,09,15,50,28.90
2018,08,09,15,51,28.90
2018,08,09,15,52,28.80
2018,08,09,15,53,28.80
2018,08,09,15,54,28.80
2018,08,09,15,55,28.70
2018,08,09,15,56,28.70
2018,08,09,15,57,28.70
2018,08,09,15,58,28.80
2018,08,09,15,59,28.90
2018,08,09,16,00,29.00
2018,08,09,16,01,29.10
2018,08,09,16,02,29.10
2018,08,09,16,03,29.10
2018,08,09,16,04,29.10
2018,08,09,16,05,29.00
2018,08,09,16,06,28.90
2018,08,09,16,07,28.90
2018,08,09,16,08,28.80
2018,08,09,16,09,28.80
2018,08,09,16,10,28.80
2018,08,09,16,11,28.70
2018,08,09,16,12,28.70
2018,08,09,16,13,28.70
2018,08,09,16,14,28.70
2018,08,09,16,15,28.60
2018,08,09,16,16,28.60
2018,08,09,16,17,28.60
2018,08,09,16,18,28.60
2018,08,09,16,19,28.50
2018,08,09,16,20,28.40
2018,08,09,16,21,28.30
2018,08,09,16,22,28.30
2018,08,09,16,23,28.20
2018,08,09,16,24,28.20
2018,08,09,16,25,28.30
2018,08,09,16,26,28.30
2018,08,09,16,27,28.30
2018,08,09,16,28,28.30
2018,08,09,16,29,28.30
2018,08,09,16,30,28.40
2018,08,09,16,31,28.40
2018,08,09,16,32,28.50
2018,08,09,16,33,28.50
2018,08,09,16,34,28.60
2018,08,09,16,35,28.60
2018,08,09,16,36,28.60
2018,08,09,16,37,28.70
2018,08,09,16,38,28.80
2018,08,09,16,39,28.90
2018,08,09,16,40,29.00
2018,08,09,16,41,29.10
2018,08,09,16,42,29.10
2018,08,09,16,43,29.10
2018,08,09,16,44,29.00
2018,08,09,16,45,28.90
2018,08,09,16,46,28.80
2018,08,09,16,47,28.80
2018,08,09,16,48,28.70
2018,08,09,16,49,28.60
2018,08,09,16,50,28.60
2018,08,09,16,51,28.70
2018,08,09,16,52,28.70
2018,08,09,16,53,28.80
2018,08,09,16,54,28.90
2018,08,09,16,55,28.90
2018,08,09,16,56,28.90
2018,08,09,16,57,28.90
2018,08,09,16,58,29.00
2018,08,09,16,59,29.00
2018,08,09,17,00,29.10
2018,08,09,17,01,29.20
2018,08,09,17,02,29.20
2018,08,09,17,03,29.30
2018,08,09,17,04,29.30
2018,08,09,17,05,29.40
2018,08,09,17,06,29.60
2018,08,09,17,07,29.80
2018,08,09,17,08,29.90
2018,08,09,17,09,30.10
2018,08,09,17,10,30.20
2018,08,09,17,11,30.30
2018,08,09,17,12,30.30
2018,08,09,17,13,30.20
2018,08,09,17,14,30.20
2018,08,09,17,15,30.10
2018,08,09,17,16,30.10
2018,08,09,17,17,29.90
2018,08,09,17,18,29.80
2018,08,09,17,19,29.60